Stations météo

réclame
Mon MeteoGroup
Annecy-Meythet, France (7490): Température de l'air & dewpoint: 18.10.2018 07:00:00 - 24.10.2018 07:00:00 (CEST)Annecy-Meythet, France (7490): Température de l'air 5cm: 18.10.2018 07:00:00 - 24.10.2018 07:00:00 (CEST)Annecy-Meythet, France (7490): Température de l'air -20cm & Température de l'air -100cm: 18.10.2018 07:00:00 - 24.10.2018 07:00:00 (CEST)Annecy-Meythet, France (7490): Vitesse du vent & gusts: 18.10.2018 07:00:00 - 24.10.2018 07:00:00 (CEST)Annecy-Meythet, France (7490): Direction du vent: 18.10.2018 07:00:00 - 24.10.2018 07:00:00 (CEST)Annecy-Meythet, France (7490): reduced air pressure: 18.10.2018 07:00:00 - 24.10.2018 07:00:00 (CEST)Annecy-Meythet, France (7490): visibility: 18.10.2018 07:00:00 - 24.10.2018 07:00:00 (CEST)Annecy-Meythet, France (7490): Quantités de précipitations: 18.10.2018 07:00:00 - 24.10.2018 07:00:00 (CEST)
Date & Time tt [°C] td [°C] tt 5cm [°C] tt -20cm [°C] tt -100cm [°C] ff [km/h] ff [knt] fx [km/h] fx [knt] dd ppp [hPa] vv [km] rr [mm]
24.10.2018 07:00:00 4,3 2,5 1,2 11,0 16,0 5 3 11 6 NNE 1028,8 15 0,0
24.10.2018 06:00:00 4,4 1,8 1,2 11,1 16,0 9 5 11 6 ENE 1028,8 25 0,0
24.10.2018 05:00:00 4,9 2,8 1,4 11,4 16,0 4 2 7 4 N 1028,4 17 0,0
24.10.2018 04:00:00 6,4 3,0 3,4 11,4 16,0 4 2 8 4 NE 1028,6 20 0,0
24.10.2018 03:00:00 7,0 3,1 5,7 11,5 16,0 3 2 4 2 ENE 1028,7 20 0,0
24.10.2018 02:00:00 6,2 2,6 4,0 11,6 16,0 0 0 9 5 N 1029,0 18 0,0
24.10.2018 01:00:00 5,7 2,2 2,8 11,8 16,0 4 2 12 7 NE 1029,5 17 0,0
24.10.2018 00:00:00 6,0 2,1 2,5 12,1 16,1 8 4 13 7 NNE 1029,4 18 0,0
23.10.2018 23:00:00 6,2 2,3 2,4 12,3 16,1 3 1 11 6 N 1029,2 20 0,0
23.10.2018 22:00:00 7,2 2,9 3,6 12,6 16,1 7 4 10 5 ENE 1028,9 13 0,0
23.10.2018 21:00:00 9,7 3,9 5,3 12,8 16,1 3 2 7 4 ESE 1028,5 26 0,0
23.10.2018 20:00:00 12,9 2,7 10,2 12,9 16,1 8 4 19 10 NNW 1027,5 37 0,0
23.10.2018 19:00:00 14,5 3,3 11,2 12,9 16,1 5 3 24 13 NW 1026,2 39 0,0
23.10.2018 18:00:00 16,8 2,4 17,3 12,9 16,1 11 6 23 12 NW 1025,6 40 0,0
23.10.2018 17:00:00 17,5 3,0 19,0 12,6 16,1 11 6 26 14 NW 1025,8 20 0,0
23.10.2018 16:00:00 17,0 3,6 18,9 12,3 16,1 16 9 30 16 NW 1026,1 20 0,0
23.10.2018 15:00:00 16,7 4,0 19,7 11,8 16,1 18 10 33 18 WNW 1026,5 19 0,0
23.10.2018 14:00:00 15,6 4,0 18,9 11,3 16,1 18 10 33 18 WNW 1027,8 18 0,0
23.10.2018 13:00:00 14,4 4,9 19,0 10,8 16,1 7 4 20 11 SSE 1028,8 18 0,0
23.10.2018 12:00:00 12,7 4,9 17,5 10,5 16,1 6 3 13 7 SSE 1029,6 18 0,0
23.10.2018 11:00:00 10,3 4,4 12,3 10,3 16,1 4 2 9 5 SSW 1030,2 16 0,0
23.10.2018 10:00:00 7,4 3,3 5,0 10,3 16,1 3 2 7 4 ENE 1030,3 16 0,2
23.10.2018 09:00:00 4,3 2,2 -0,5 10,5 16,2 3 2 9 5 N 1031,3 9 0,0
23.10.2018 08:00:00 2,8 1,2 -0,5 10,7 16,2 3 2 10 5 N 1031,1 11 0,0
23.10.2018 07:00:00 2,9 1,4 -0,6 10,9 16,2 3 2 12 7 E 1030,8 12 0,0
23.10.2018 06:00:00 2,6 1,3 -1,1 11,1 16,2 3 2 8 4 E 1030,4 13 0,0
23.10.2018 05:00:00 3,0 1,7 -0,7 11,4 16,2 4 2 8 5 ENE 1030,6 15 0,0
23.10.2018 04:00:00 3,7 1,6 0,0 11,6 16,2 4 2 7 4 NE 1030,3 16 0,0
23.10.2018 03:00:00 4,1 1,8 0,8 11,8 16,2 0 0 10 5 N 1029,8 19 0,0
23.10.2018 02:00:00 5,1 2,6 1,6 12,1 16,2 0 0 15 8 N 1029,1 20 0,0
23.10.2018 01:00:00 5,6 2,6 2,3 12,3 16,2 10 5 13 7 ENE 1028,7 19 0,0
23.10.2018 00:00:00 7,6 3,1 5,0 12,5 16,2 8 4 22 12 ESE 1028,4 20 0,0
22.10.2018 23:00:00 8,7 2,5 3,4 12,7 16,2 9 5 16 8 N 1027,8 40 0,0
22.10.2018 22:00:00 10,5 1,8 5,0 13,0 16,2 8 5 22 12 NNE 1027,0 53 0,0
22.10.2018 21:00:00 11,3 1,0 7,2 13,1 16,2 9 5 19 10 NNW 1026,1 59 0,0
22.10.2018 20:00:00 12,9 0,6 10,6 13,3 16,2 14 8 30 16 NNE 1025,0 60 0,0
22.10.2018 19:00:00 14,1 0,3 11,7 13,4 16,2 12 7 26 14 N 1023,7 60 0,0
22.10.2018 18:00:00 16,1 -0,2 16,4 13,4 16,2 14 7 37 20 NNE 1022,7 45 0,0
22.10.2018 17:00:00 16,7 1,5 18,9 13,2 16,2 21 12 37 20 NE 1022,1 19 0,0
22.10.2018 16:00:00 16,3 3,4 19,9 12,9 16,3 18 10 31 17 NNE 1022,1 20 0,0
22.10.2018 15:00:00 15,2 4,3 19,4 12,6 16,3 13 7 34 18 ENE 1022,6 18 0,0
22.10.2018 14:00:00 14,8 5,0 19,6 12,2 16,3 4 2 24 13 ESE 1023,0 15 0,0
22.10.2018 13:00:00 13,2 4,6 18,0 11,9 16,3 12 6 26 14 NE 1023,9 10 0,0
22.10.2018 12:00:00 11,7 4,9 14,3 11,6 16,3 10 6 18 10 ENE 1024,6 14 0,0
22.10.2018 11:00:00 10,3 5,9 8,4 11,4 16,3 0 0 8 4 N 1024,9 10 0,0
22.10.2018 10:00:00 7,8 5,4 7,6 11,4 16,3 2 1 7 4 NNE 1025,2 8 0,0
22.10.2018 09:00:00 7,5 5,6 5,2 11,3 16,3 4 2 7 4 S 1024,7 8 0,0
22.10.2018 08:00:00 6,1 4,7 4,5 11,4 16,3 4 2 7 4 NNE 1024,3 8 0,0
22.10.2018 07:00:00 4,4 3,7 0,2 11,5 16,3 0 0 6 3 N 1024,3 4,7 0,0
22.10.2018 06:00:00 4,6 3,9 -0,2 11,7 16,3 4 2 6 4 NE 1023,9 6 0,0
22.10.2018 05:00:00 4,7 3,8 1,0 11,9 16,3 3 2 7 4 S 1023,7 3,6 0,0
22.10.2018 04:00:00 6,7 4,9 1,7 12,2 16,3 6 3 11 6 N 1023,1 6 0,0
22.10.2018 03:00:00 6,0 4,5 1,2 12,5 16,3 4 2 7 4 ENE 1023,5 6 0,0
22.10.2018 02:00:00 6,2 4,7 2,3 12,7 16,3 3 2 9 5 N 1023,2 6 0,0
22.10.2018 01:00:00 7,7 4,6 3,3 12,9 16,3 5 3 13 7 WNW 1022,7 8 0,0
22.10.2018 00:00:00 8,7 4,9 4,2 13,2 16,4 3 1 15 8 NNE 1022,3 9 0,0
21.10.2018 23:00:00 10,1 5,5 4,9 13,4 16,3 10 5 18 10 NNE 1021,6 11 0,0
21.10.2018 22:00:00 10,3 4,6 5,7 13,7 16,4 4 2 11 6 SSW 1021,2 14 0,0
21.10.2018 21:00:00 11,2 4,9 7,2 13,9 16,4 3 2 14 8 ESE 1020,8 17 0,0
21.10.2018 20:00:00 12,1 4,6 8,2 14,1 16,4 4 2 18 10 NW 1020,5 19 0,0
21.10.2018 19:00:00 15,7 4,4 13,2 14,2 16,4 14 8 26 14 N 1019,7 20 0,0
21.10.2018 18:00:00 17,5 4,8 17,8 14,1 16,4 9 5 20 11 NE 1019,3 19 0,0
21.10.2018 17:00:00 18,0 6,2 20,5 13,9 16,4 10 6 26 14 NE 1019,5 15 0,0
21.10.2018 16:00:00 17,2 6,7 21,0 13,7 16,4 19 10 29 16 NE 1020,3 11 0,0
21.10.2018 15:00:00 17,2 7,8 21,4 13,3 16,4 19 10 28 15 ENE 1020,9 11 0,0
21.10.2018 14:00:00 16,6 8,5 21,1 12,9 16,4 9 5 28 15 ENE 1021,9 10 0,0
21.10.2018 13:00:00 15,0 8,7 15,6 12,5 16,4 13 7 24 13 NE 1023,3 8 0,0
21.10.2018 12:00:00 12,6 8,7 14,7 12,2 16,4 4 2 9 5 WSW 1024,4 8 0,0
21.10.2018 11:00:00 11,5 8,7 10,5 11,9 16,4 2 1 5 3 SW 1025,2 6 0,0
21.10.2018 10:00:00 8,4 7,0 7,6 11,8 16,4 2 1 6 4 NNE 1026,3 4,3 0,0
21.10.2018 09:00:00 7,3 6,4 6,0 11,8 16,4 4 2 10 5 NW 1026,5 4,4 0,0
21.10.2018 08:00:00 5,5 5,2 2,5 11,9 16,4 0 0 6 4 N 1026,7 5 0,0
21.10.2018 07:00:00 4,4 4,0 0,7 12,1 16,4 3 2 7 4 N 1027,3 3,1 0,0
21.10.2018 06:00:00 4,0 3,3 1,1 12,3 16,4 2 1 5 3 N 1027,6 3,1 0,0
21.10.2018 05:00:00 5,2 4,6 1,5 12,5 16,4 0 0 8 4 N 1027,5 3,4 0,0
21.10.2018 04:00:00 5,1 4,5 1,7 12,7 16,4 4 2 5 3 N 1027,6 2,2 0,0
21.10.2018 03:00:00 6,0 5,1 2,7 13,0 16,4 3 1 7 4 NNE 1027,7 4,3 0,0
21.10.2018 02:00:00 6,4 5,5 2,9 13,2 16,5 3 2 8 5 NNW 1027,8 3,4 0,2
21.10.2018 01:00:00 7,7 6,6 4,0 13,5 16,5 4 2 8 5 NE 1027,6 3,9 0,0
21.10.2018 00:00:00 8,3 6,8 5,0 13,7 16,4 3 2 14 8 NNE 1027,8 5 0,0
20.10.2018 23:00:00 8,9 6,9 5,8 13,9 16,4 6 3 11 6 ENE 1027,5 5 0,0
20.10.2018 22:00:00 9,8 7,4 5,6 14,2 16,5 4 2 7 4 NNE 1026,9 6 0,0
20.10.2018 21:00:00 11,0 7,9 7,4 14,4 16,5 4 2 11 6 N 1026,5 7 0,0
20.10.2018 20:00:00 13,1 8,8 8,4 14,6 16,5 4 2 10 5 W 1025,6 8 0,0
20.10.2018 19:00:00 15,0 8,5 13,0 14,6 16,5 5 3 23 12 N 1024,5 10 0,0
20.10.2018 18:00:00 16,5 8,9 16,6 14,6 16,5 10 6 22 12 W 1024,0 10 0,0
20.10.2018 17:00:00 17,6 9,2 19,9 14,4 16,5 11 6 29 16 NW 1023,8 10 0,0
20.10.2018 16:00:00 17,7 9,3 21,4 14,1 16,5 14 8 35 19 NW 1024,1 7 0,0
20.10.2018 15:00:00 17,6 10,0 21,0 13,8 16,5 5 3 25 13 W 1024,5 8 0,0
20.10.2018 14:00:00 15,6 9,9 15,5 13,5 16,5 15 8 27 15 NE 1025,6 7 0,0
20.10.2018 13:00:00 13,7 9,9 14,7 13,3 16,5 16 9 28 15 NE 1026,7 6 0,0
20.10.2018 12:00:00 13,4 10,2 13,4 13,1 16,5 13 7 23 12 NE 1026,9 5 0,0
20.10.2018 11:00:00 12,9 10,1 12,7 12,9 16,5 18 10 25 13 NE 1026,7 4,4 0,0
20.10.2018 10:00:00 11,9 10,0 9,7 12,8 16,5 7 4 16 8 N 1027,0 3,6 0,0
20.10.2018 09:00:00 9,1 8,2 6,9 12,9 16,5 4 2 10 5 NNW 1027,1 3,2 0,0
20.10.2018 08:00:00 6,7 6,3 3,3 13,0 16,5 3 2 8 4 W 1026,5 3,2 0,0
20.10.2018 07:00:00 6,8 6,1 3,5 13,3 16,5 3 2 6 3 N 1025,8 3,2 0,0
20.10.2018 06:00:00 6,5 5,6 4,1 13,5 16,5 0 0 6 4 N 1025,5 3,0 0,0
20.10.2018 05:00:00 7,1 6,2 4,1 13,7 16,5 3 2 5 3 NNW 1024,9 3,3 0,0
20.10.2018 04:00:00 7,5 6,8 4,8 13,9 16,5 0 0 8 5 N 1024,7 3,4 0,0
20.10.2018 03:00:00 7,8 7,0 4,9 14,2 16,5 0 0 7 4 N 1024,4 3,5 0,0
20.10.2018 02:00:00 8,9 7,5 5,4 14,4 16,5 3 2 7 4 NE 1024,3 4,4 0,0
20.10.2018 01:00:00 9,5 7,8 6,4 14,7 16,6 3 2 6 3 NNW 1024,0 6 0,0
20.10.2018 00:00:00 11,0 8,7 7,5 14,9 16,6 2 1 13 7 ESE 1023,3 7 0,0
19.10.2018 23:00:00 12,0 8,8 8,7 15,1 16,5 7 4 14 8 NNW 1022,7 9 0,0
19.10.2018 22:00:00 12,7 9,0 9,8 15,3 16,6 6 3 10 6 NNW 1022,2 10 0,0
19.10.2018 21:00:00 14,8 9,4 12,6 15,4 16,5 7 4 16 9 NW 1021,1 11 0,0
19.10.2018 20:00:00 15,8 9,5 12,3 15,6 16,6 5 3 14 7 NNW 1020,5 12 0,0
19.10.2018 19:00:00 17,2 10,1 15,7 15,6 16,6 9 5 19 10 NW 1019,5 13 0,0
19.10.2018 18:00:00 19,1 10,1 19,3 15,6 16,6 9 5 19 10 WNW 1018,3 12 0,0
19.10.2018 17:00:00 19,8 9,9 21,4 15,4 16,6 12 7 22 12 WNW 1018,1 15 0,0
19.10.2018 16:00:00 20,2 10,3 22,9 15,0 16,6 14 7 23 13 W 1017,9 15 0,0
19.10.2018 15:00:00 20,4 10,2 24,6 14,5 16,6 12 6 21 12 W 1017,6 10 0,0
19.10.2018 14:00:00 19,5 10,2 24,4 13,9 16,6 11 6 19 10 WNW 1018,1 8 0,0
19.10.2018 13:00:00 18,7 10,3 22,0 13,4 16,6 4 2 11 6 WNW 1019,0 10 0,0
19.10.2018 12:00:00 16,2 9,8 18,7 13,0 16,6 4 2 11 6 S 1019,8 10 0,0
19.10.2018 11:00:00 13,9 9,5 16,3 12,8 16,6 4 2 9 5 SW 1020,4 10 0,0
19.10.2018 10:00:00 11,4 8,1 8,4 12,8 16,6 0 0 6 3 N 1020,6 8 0,0
19.10.2018 09:00:00 8,1 6,6 5,2 12,9 16,6 3 2 6 3 N 1021,2 6 0,0
19.10.2018 08:00:00 7,1 6,2 4,0 13,1 16,6 6 3 10 5 NNE 1020,9 6 0,0
19.10.2018 07:00:00 7,0 6,3 4,1 13,3 16,6 3 1 9 5 NNE 1020,7 6 0,0
19.10.2018 06:00:00 7,2 6,1 3,8 13,4 16,6 3 2 8 4 NNW 1020,3 8 0,2
19.10.2018 05:00:00 6,8 5,7 4,0 13,6 16,6 2 1 7 4 N 1020,1 8 0,0
19.10.2018 04:00:00 7,9 6,7 4,6 13,9 16,6 4 2 7 4 N 1019,6 9 0,0
19.10.2018 03:00:00 7,9 6,4 4,8 14,1 16,6 3 2 6 3 N 1019,7 11 0,0
19.10.2018 02:00:00 8,5 6,8 5,2 14,3 16,6 3 2 8 4 NNE 1019,5 13 0,0
19.10.2018 01:00:00 8,9 6,5 5,8 14,6 16,6 3 1 6 3 N 1019,1 14 0,0
19.10.2018 00:00:00 10,1 7,0 6,7 14,8 16,6 6 3 8 5 NE 1018,6 14 0,0
18.10.2018 23:00:00 10,3 7,4 6,8 15,1 16,6 5 3 7 4 ENE 1018,1 15 0,0
18.10.2018 22:00:00 12,0 7,9 8,3 15,3 16,6 4 2 8 5 N 1017,5 17 0,0
18.10.2018 21:00:00 13,3 8,6 9,3 15,5 16,6 4 2 7 4 NE 1016,9 18 0,0
18.10.2018 20:00:00 14,8 8,5 11,1 15,7 16,6 4 2 13 7 NNW 1015,9 20 0,0
18.10.2018 19:00:00 17,1 8,8 13,7 15,8 16,6 5 3 16 9 NW 1015,0 20 0,0
18.10.2018 18:00:00 20,1 8,4 20,5 15,7 16,6 8 4 21 11 NNE 1013,8 20 0,0
18.10.2018 17:00:00 21,5 8,4 23,9 15,4 16,6 8 5 26 14 NNE 1013,3 34 0,0
18.10.2018 16:00:00 22,1 8,6 25,7 15,1 16,6 9 5 28 15 NNW 1013,2 20 0,0
18.10.2018 15:00:00 21,6 8,5 26,0 14,7 16,7 10 6 28 15 N 1013,7 32 0,0
18.10.2018 14:00:00 20,9 7,8 25,4 14,2 16,7 16 9 29 16 ENE 1014,2 32 0,0
18.10.2018 13:00:00 20,0 9,3 25,2 13,7 16,6 3 2 11 6 SW 1015,1 13 0,0
18.10.2018 12:00:00 18,2 9,3 21,9 13,3 16,6 4 2 11 6 S 1016,3 15 0,0
18.10.2018 11:00:00 16,0 8,7 17,7 13,1 16,7 2 1 8 4 ESE 1016,9 13 0,0
18.10.2018 10:00:00 12,4 7,7 10,8 13,1 16,6 2 1 8 4 S 1017,6 12 0,0
18.10.2018 09:00:00 8,4 6,5 3,7 13,2 16,6 0 0 7 4 N 1018,1 8 0,0
18.10.2018 08:00:00 6,2 4,8 3,4 13,4 16,6 0 0 8 4 N 1018,2 7 0,0
18.10.2018 07:00:00 6,6 5,4 3,5 13,6 16,7 0 0 6 4 N 1018,0 9 0,0

tt = Température de l'air
td = dewpoint
tt 5cm = Température de l'air 5cm
tt -20cm = Température de l'air -20cm
tt -100cm = Température de l'air -100cm
ff = Vitesse du vent
fx = gusts
dd = Direction du vent
ppp = reduced air pressure
vv = visibility
rr = Quantités de précipitations

stations d'obs. à proximité